Location: Brno
(49.2000°N, 16.6330°E)
Time: 21:59:48
(UTC+02:00)

BREEZE M DEB (TANK) - Visible Passes

Search period start: 23 September 2017 00:00
Search period end: 03 October 2017 00:00
Orbit: 305 x 11963 km, 49.5° (Epoch: 23 September)

Date Brightness Start Highest point End Pass type
(mag) Time Alt. Az. Time Alt. Az. Time Alt. Az.
23 Sep 7.4 03:01:05 17° W 03:33:46 89° N 05:16:43 10° ESE visible
23 Sep 6.5 22:21:29 43° SE 22:24:38 44° ESE 23:20:03 10° NE visible
24 Sep 7.1 02:13:33 26° WSW 02:37:46 90° N 04:20:36 10° ESE visible
24 Sep 6.7 21:33:54 32° ESE 21:36:52 33° E 22:20:00 10° NE visible
25 Sep 6.8 01:25:57 35° WSW 01:43:24 87° SSE 03:22:28 10° E visible
25 Sep 7.9 05:26:40 10° WNW 06:24:22 75° SW 07:50:30 10° SSE visible
25 Sep 6.9 20:46:13 22° E 20:49:49 23° E 21:20:14 10° NE visible
26 Sep 6.6 00:38:16 44° SW 00:50:33 82° SSE 02:22:26 10° E visible
26 Sep 7.8 04:36:04 10° WNW 05:27:22 81° SW 06:59:47 10° SE visible
26 Sep 7.1 19:58:27 13° E 20:03:22 15° E 20:19:17 10° NE visible
26 Sep 6.3 23:50:28 51° SSW 23:59:03 74° SE 01:21:05 10° ENE visible
27 Sep 7.7 03:45:45 10° W 04:29:38 86° SSW 06:07:44 10° SE visible
27 Sep 6.2 23:02:32 52° S 23:08:42 64° SE 00:19:21 10° ENE visible
28 Sep 7.5 02:55:43 10° W 03:32:12 90° SSW 05:14:08 10° ESE visible
28 Sep 6.2 22:14:23 46° SSE 22:19:24 52° ESE 23:18:06 10° ENE visible
29 Sep 7.4 02:06:19 11° W 02:35:50 89° N 04:18:43 10° ESE visible
29 Sep 8.1 06:14:31 10° WNW 07:14:20 61° WSW 08:34:01 10° S visible
29 Sep 6.2 21:25:51 36° SE 21:31:02 40° ESE 22:17:49 10° NE visible
30 Sep 7.2 01:17:43 15° WSW 01:40:56 90° S 03:21:12 10° E visible
30 Sep 8.0 05:23:30 10° WNW 06:19:57 69° SW 07:45:11 10° SSE visible
30 Sep 6.4 20:36:19 23° SE 20:43:27 29° E 21:18:23 10° NE visible
01 Oct 7.1 00:27:41 12° WSW 00:47:30 86° SSE 02:21:33 10° E visible
01 Oct 7.9 04:32:50 10° WNW 05:24:05 76° SW 06:55:06 10° SSE visible
01 Oct 6.6 19:46:16 10° SE 19:56:30 20° E 20:19:04 10° NE visible
01 Oct 6.8 23:38:21 10° SW 23:55:22 80° SSE 01:20:10 10° E visible
02 Oct 7.7 03:42:28 10° WNW 04:27:13 83° SSW 06:03:42 10° SE visible
02 Oct 6.8 19:05:09 10° E 19:10:04 11° ENE 19:16:34 10° ENE visible
